Weather History for Lone Rock, WI

Change the Weather History Date:

Monday, December 17, 2012

  Actual Average Record
Temperature  
Mean Temperature 30 °F -  
Max Temperature 32 °F 28 °F 43 °F (2006)
Min Temperature 28 °F 15 °F -9 °F (2008)
Degree Days  
Heating Degree Days 35    
Moisture  
Dew Point 24 °F    
Average Humidity 79    
Maximum Humidity 87    
Minimum Humidity 72    
Precipitation  
Precipitation 0.00 in - - ()
Sea Level Pressure  
Sea Level Pressure 29.74 in    
Wind  
Wind Speed 5 mph (NNW)    
Max Wind Speed 9 mph    
Max Gust Speed -    
Visibility 7 miles    
Events      
Averages and records for this station are not official NWS values.
T = Trace of Precipitation, MM = Missing Value Source: NWS Daily Summary

Daily Weather History Graph

Daily Weather History Graph

Search for Another Location

Airport:

Trip Planner

Search our weather history database for the weather conditions in past years. The results will help you decide how hot, cold, wet, or windy it might be!

Date:

Astronomy

Dec. 17, 2012 Rise Set
Actual Time 7:27 AM CST 4:26 PM CST
Civil Twilight 6:54 AM CST 4:59 PM CST
Nautical Twilight 6:18 AM CST 5:35 PM CST
Astronomical Twilight 5:44 AM CST 6:10 PM CST
Moon 10:29 AM CST (12/17) 9:56 PM CST (12/17)
Length of Visible Light 10h 04m
Length of Day
8h 59m
Waxing Crescent, 25% of the Moon is Illuminated
Dec 17
Waxing Crescent
Dec 19
First Quarter
Dec 28
Full
Jan 4
Last Quarter
Jan 11
New

Hourly Weather History & Observations

Time (CST) Temp. Windchill Dew Point Humidity Pressure Visibility Wind Dir Wind Speed Gust Speed Precip Events Conditions
12:54 AM 32.0 °F 24.8 °F 28.4 °F 87% 29.73 in 6.0 mi West 8.1 mph - N/A   Overcast
12:56 AM 32.0 °F 24.8 °F 28.0 °F 85% 29.74 in 6.0 mi West 8.1 mph - N/A   Overcast
1:56 AM 30.9 °F 22.8 °F 27.0 °F 85% 29.74 in 7.0 mi West 9.2 mph - N/A   Overcast
2:56 AM 30.9 °F 24.3 °F 26.1 °F 82% 29.74 in 7.0 mi NNW 6.9 mph - N/A   Overcast
3:56 AM 30.0 °F 23.2 °F 24.1 °F 79% 29.74 in 7.0 mi WNW 6.9 mph - N/A   Overcast
4:56 AM 28.9 °F 21.9 °F 24.1 °F 82% 29.75 in 7.0 mi WNW 6.9 mph - N/A   Overcast
5:56 AM 28.9 °F 21.9 °F 24.1 °F 82% 29.76 in 6.0 mi West 6.9 mph - N/A   Haze
6:56 AM 28.0 °F 20.0 °F 23.0 °F 81% 29.76 in 5.0 mi NNW 8.1 mph - N/A   Haze
7:56 AM 28.0 °F 24.2 °F 21.9 °F 78% 29.76 in 4.0 mi North 3.5 mph - N/A   Haze
8:56 AM 28.0 °F 20.8 °F 21.9 °F 78% 29.75 in 3.0 mi North 6.9 mph - N/A   Haze
9:56 AM 28.0 °F - 21.9 °F 78% 29.75 in 4.0 mi Calm Calm - N/A   Haze
10:56 AM 28.0 °F 22.8 °F 21.9 °F 78% 29.74 in 6.0 mi NE 4.6 mph - N/A   Haze
11:56 AM 28.9 °F - 21.9 °F 75% 29.74 in 7.0 mi Calm Calm - N/A   Overcast
12:56 PM 28.9 °F - 23.0 °F 78% 29.73 in 6.0 mi Calm Calm - N/A   Haze
1:56 PM 30.0 °F 25.2 °F 23.0 °F 75% 29.71 in 7.0 mi West 4.6 mph - N/A   Overcast
2:21 PM 28.4 °F - 23.0 °F 80% 29.70 in 8.0 mi Calm Calm - N/A   Overcast
2:56 PM 28.9 °F - 23.0 °F 78% 29.72 in 8.0 mi Calm Calm - N/A   Overcast
3:56 PM 30.0 °F - 21.9 °F 72% 29.72 in 8.0 mi Calm Calm - N/A   Overcast
6:56 PM 30.0 °F 25.2 °F 23.0 °F 75% 29.73 in 9.0 mi NNW 4.6 mph - N/A   Overcast
7:21 PM 30.2 °F 26.7 °F 23.0 °F 75% 29.72 in 9.0 mi North 3.5 mph - N/A   Overcast
7:56 PM 28.9 °F 23.9 °F 23.0 °F 78% 29.73 in 9.0 mi NE 4.6 mph - N/A   Overcast
8:56 PM 28.9 °F 25.2 °F 21.9 °F 75% 29.73 in 9.0 mi NE 3.5 mph - N/A   Overcast
9:47 PM 28.4 °F - 23.0 °F 80% 29.72 in 9.0 mi Calm Calm - N/A   Overcast
9:56 PM 28.0 °F - 23.0 °F 81% 29.74 in 9.0 mi Calm Calm - N/A   Overcast
10:56 PM 28.0 °F - 23.0 °F 81% 29.75 in 8.0 mi Calm Calm - N/A   Overcast
11:56 PM 28.0 °F - 23.0 °F 81% 29.75 in 8.0 mi Calm Calm - N/A   Overcast